When you browse on this site, cookies collect data to enhance your experience and personalize the content and advertising you see.
Visit our Privacy Policy to learn more. By continuing to use the site, you agree to this use of cookies and data.
  • In Hungary
  • List of Countries
  • For 7 days
  • Water Temperature
  • Weather Map
  • News
  • Weather Widgets
  • user-avatar
    Login

    Hourly Weather Boma

    Today, 28 May, Thursday

    Time Temperature Precipitation Wind Pressure Humidity
    00:00 +21°C° 0.2 mm 0 mps 700 mmHg 96%
    01:00 +21°C° 0 mm 0 mps 700 mmHg 98%
    02:00 +21°C° 0.2 mm 0 mps 700 mmHg 98%
    03:00 +20°C° 0.2 mm 0 mps 700 mmHg 98%
    04:00 +20°C° 0.2 mm 0 mps 699 mmHg 99%
    05:00 +21°C° 0 mm 0 mps 700 mmHg 99%
    06:00 +21°C° 0 mm 0 mps 700 mmHg 98%
    07:00 +21°C° 0 mm 0 mps 701 mmHg 99%
    08:00 +23°C° 0 mm 0 mps 701 mmHg 93%
    09:00 +24°C° 0 mm 0 mps 701 mmHg 87%
    10:00 +27°C° 0 mm 1 mps 701 mmHg 81%
    11:00 +29°C° 0.3 mm 1 mps 701 mmHg 76%
    12:00 +30°C° 0.3 mm 1 mps 700 mmHg 71%
    13:00 +31°C° 0.3 mm 1 mps 700 mmHg 65%
    14:00 +31°C° 0.7 mm 1 mps 699 mmHg 65%
    15:00 +31°C° 0.7 mm 1 mps 698 mmHg 64%
    16:00 +31°C° 0.7 mm 1 mps 698 mmHg 64%
    17:00 +27°C° 0.3 mm 0 mps 698 mmHg 71%
    18:00 +25°C° 0.3 mm 0 mps 699 mmHg 79%
    19:00 +23°C° 0.3 mm 0 mps 699 mmHg 86%
    20:00 +23°C° 0.8 mm 0 mps 700 mmHg 89%
    21:00 +22°C° 0.8 mm 0 mps 700 mmHg 92%
    22:00 +22°C° 0.8 mm 0 mps 700 mmHg 95%
    23:00 +22°C° 0.3 mm 0 mps 700 mmHg 95%

    Tomorrow, 29 May, Friday

    Time Temperature Precipitation Wind Pressure Humidity
    00:00 +21°C° 0.3 mm 0 mps 700 mmHg 96%
    01:00 +21°C° 0.3 mm 0 mps 700 mmHg 96%
    02:00 +21°C° 0.4 mm 0 mps 700 mmHg 97%
    03:00 +21°C° 0.4 mm 0 mps 700 mmHg 98%
    04:00 +21°C° 0.4 mm 0 mps 699 mmHg 98%
    05:00 +21°C° 0.1 mm 0 mps 700 mmHg 98%
    06:00 +21°C° 0.1 mm 0 mps 700 mmHg 98%
    07:00 +21°C° 0.1 mm 0 mps 701 mmHg 98%
    08:00 +25°C° 0.1 mm 1 mps 701 mmHg 89%
    09:00 +27°C° 0.1 mm 1 mps 702 mmHg 80%
    10:00 +29°C° 0.1 mm 1 mps 702 mmHg 71%
    11:00 +29°C° 0.4 mm 1 mps 702 mmHg 73%
    12:00 +28°C° 0.4 mm 1 mps 701 mmHg 75%
    13:00 +28°C° 0.4 mm 1 mps 700 mmHg 77%
    14:00 +29°C° 0.3 mm 1 mps 700 mmHg 74%
    15:00 +29°C° 0.3 mm 1 mps 699 mmHg 71%
    16:00 +28°C° 0.3 mm 0 mps 699 mmHg 67%
    17:00 +26°C° 0.5 mm 0 mps 699 mmHg 76%
    18:00 +24°C° 0.5 mm 0 mps 699 mmHg 85%
    19:00 +22°C° 0.5 mm 0 mps 699 mmHg 93%
    20:00 +22°C° 0.4 mm 0 mps 699 mmHg 94%
    21:00 +22°C° 0.4 mm 0 mps 700 mmHg 95%
    22:00 +21°C° 0.4 mm 0 mps 700 mmHg 96%
    23:00 +21°C° 0.1 mm 0 mps 700 mmHg 97%

    Day after tomorrow, 30 May, Saturday

    Time Temperature Precipitation Wind Pressure Humidity
    00:00 +21°C° 0.1 mm 0 mps 700 mmHg 97%
    01:00 +20°C° 0.1 mm 0 mps 700 mmHg 98%
    02:00 +20°C° 0.7 mm 0 mps 700 mmHg 98%
    03:00 +20°C° 0.7 mm 0 mps 700 mmHg 99%
    04:00 +20°C° 0.7 mm 0 mps 699 mmHg 99%
    05:00 +20°C° 0 mm 0 mps 700 mmHg 99%
    06:00 +21°C° 0 mm 0 mps 700 mmHg 99%
    07:00 +21°C° 0 mm 0 mps 701 mmHg 98%
    08:00 +23°C° 0 mm 0 mps 701 mmHg 90%
    09:00 +25°C° 0 mm 0 mps 701 mmHg 82%
    10:00 +26°C° 0 mm 0 mps 701 mmHg 74%
    11:00 +31°C° 0 mm 1 mps 701 mmHg 64%
    12:00 +33°C° 0 mm 1 mps 701 mmHg 54%
    13:00 +35°C° 0 mm 1 mps 701 mmHg 44%
    14:00 +34°C° 0 mm 1 mps 700 mmHg 46%
    15:00 +33°C° 0 mm 1 mps 699 mmHg 49%
    16:00 +33°C° 0 mm 1 mps 699 mmHg 51%
    17:00 +30°C° 0 mm 1 mps 699 mmHg 61%
    18:00 +28°C° 0 mm 1 mps 699 mmHg 71%
    19:00 +26°C° 0 mm 1 mps 699 mmHg 81%
    20:00 +23°C° 0.1 mm 0 mps 699 mmHg 84%
    21:00 +22°C° 0.1 mm 0 mps 700 mmHg 87%
    22:00 +22°C° 0.1 mm 0 mps 700 mmHg 90%
    23:00 +21°C° 0 mm 0 mps 700 mmHg 91%

    31 May, Sunday

    Time Temperature Precipitation Wind Pressure Humidity
    00:00 +21°C° 0 mm 0 mps 700 mmHg 93%
    01:00 +20°C° 0 mm 0 mps 700 mmHg 95%
    02:00 +20°C° 0 mm 0 mps 700 mmHg 96%
    03:00 +20°C° 0 mm 0 mps 699 mmHg 97%
    04:00 +20°C° 0 mm 0 mps 699 mmHg 98%
    05:00 +20°C° 0 mm 0 mps 700 mmHg 96%
    06:00 +21°C° 0 mm 0 mps 700 mmHg 95%
    07:00 +21°C° 0 mm 0 mps 701 mmHg 94%
    08:00 +24°C° 0 mm 0 mps 701 mmHg 83%
    09:00 +26°C° 0 mm 0 mps 702 mmHg 72%
    10:00 +29°C° 0 mm 0 mps 702 mmHg 61%
    11:00 +31°C° 0.1 mm 1 mps 701 mmHg 61%
    12:00 +31°C° 0.1 mm 1 mps 701 mmHg 61%
    13:00 +31°C° 0.1 mm 1 mps 700 mmHg 62%
    14:00 +31°C° 0.8 mm 1 mps 700 mmHg 66%
    15:00 +29°C° 0.8 mm 0 mps 699 mmHg 70%
    16:00 +28°C° 0.8 mm 0 mps 699 mmHg 74%
    17:00 +26°C° 0.5 mm 0 mps 699 mmHg 80%
    18:00 +25°C° 0.5 mm 0 mps 699 mmHg 87%
    19:00 +23°C° 0.5 mm 0 mps 699 mmHg 93%
    20:00 +22°C° 0.1 mm 0 mps 700 mmHg 95%
    21:00 +22°C° 0.1 mm 0 mps 700 mmHg 96%
    22:00 +21°C° 0.1 mm 0 mps 701 mmHg 97%
    23:00 +21°C° 0.1 mm 0 mps 701 mmHg 97%

    1 June, Monday

    Time Temperature Precipitation Wind Pressure Humidity
    00:00 +21°C° 0.1 mm 0 mps 701 mmHg 97%
    01:00 +21°C° 0.1 mm 0 mps 701 mmHg 98%
    02:00 +20°C° 0.5 mm 0 mps 700 mmHg 98%
    03:00 +20°C° 0.5 mm 0 mps 700 mmHg 99%
    04:00 +20°C° 0.5 mm 0 mps 700 mmHg 99%
    05:00 +20°C° 0 mm 0 mps 700 mmHg 99%
    06:00 +20°C° 0 mm 0 mps 701 mmHg 99%
    07:00 +23°C° 0 mm 1 mps 701 mmHg 98%
    08:00 +24°C° 0 mm 1 mps 701 mmHg 94%
    09:00 +25°C° 0 mm 1 mps 701 mmHg 90%
    10:00 +26°C° 0 mm 1 mps 702 mmHg 86%
    11:00 +28°C° 0 mm 1 mps 701 mmHg 76%
    12:00 +29°C° 0 mm 1 mps 701 mmHg 66%
    13:00 +31°C° 0 mm 1 mps 701 mmHg 57%
    14:00 +31°C° 0 mm 1 mps 700 mmHg 57%
    15:00 +31°C° 0 mm 1 mps 700 mmHg 57%
    16:00 +31°C° 0 mm 1 mps 699 mmHg 57%
    17:00 +29°C° 0 mm 1 mps 699 mmHg 66%
    18:00 +27°C° 0 mm 1 mps 699 mmHg 76%
    19:00 +25°C° 0 mm 1 mps 699 mmHg 86%
    20:00 +25°C° 0.2 mm 1 mps 700 mmHg 89%
    21:00 +24°C° 0.2 mm 1 mps 700 mmHg 92%
    22:00 +23°C° 0.2 mm 1 mps 700 mmHg 95%
    23:00 +23°C° 0.3 mm 1 mps 700 mmHg 96%

    2 June, Tuesday

    Time Temperature Precipitation Wind Pressure Humidity
    00:00 +21°C° 0.3 mm 0 mps 700 mmHg 97%
    01:00 +20°C° 0.3 mm 0 mps 700 mmHg 98%
    02:00 +20°C° 0.3 mm 0 mps 700 mmHg 98%
    03:00 +20°C° 0.3 mm 0 mps 700 mmHg 99%
    04:00 +20°C° 0.3 mm 0 mps 700 mmHg 99%
    05:00 +22°C° 0 mm 1 mps 700 mmHg 99%
    06:00 +23°C° 0 mm 1 mps 701 mmHg 99%
    07:00 +23°C° 0 mm 1 mps 701 mmHg 98%
    08:00 +23°C° 0 mm 1 mps 701 mmHg 96%
    09:00 +24°C° 0 mm 1 mps 701 mmHg 94%
    10:00 +24°C° 0 mm 1 mps 702 mmHg 93%
    11:00 +26°C° 0 mm 1 mps 701 mmHg 82%
    12:00 +28°C° 0 mm 1 mps 701 mmHg 72%
    13:00 +30°C° 0 mm 1 mps 700 mmHg 61%
    14:00 +31°C° 0 mm 1 mps 700 mmHg 59%
    15:00 +31°C° 0 mm 1 mps 700 mmHg 56%
    16:00 +32°C° 0 mm 1 mps 699 mmHg 53%
    17:00 +29°C° 0.4 mm 1 mps 699 mmHg 66%
    18:00 +27°C° 0.4 mm 1 mps 699 mmHg 80%
    19:00 +22°C° 0.4 mm 0 mps 699 mmHg 93%
    20:00 +22°C° 0.5 mm 0 mps 700 mmHg 94%
    21:00 +21°C° 0.5 mm 0 mps 700 mmHg 95%
    22:00 +21°C° 0.5 mm 0 mps 700 mmHg 96%
    23:00 +21°C° 0 mm 0 mps 700 mmHg 96%
    Show more